Flag for Canada Weather past 2 weeks in Creighton, Saskatchewan, Canada

Now
36 °F

Partly cloudy.


Feels Like: 27 °F
Forecast: 28 / 40 °F
Wind: 12 mph from Northwest

Location: The Pas

Current Time: Mar 28, 2015 at 11:59:43 PM

Latest Report: Mar 28, 2015 at 11:00 PM


Visibility: 15 mi

Pressure: 29.63 "Hg

Humidity: 93%

Dew point: 34 °F

Location of CreightonLocation

Historic Weather in Creighton — Graph

°F

Creighton temperature yesterday

Maximum temperature yesterday: 37 °F (at 3:00 PM)
Minimum temperature yesterday: 16 °F (at 3:00 AM)
Average temperature yesterday: 27 °F

Past Weeks' High & Low Weather Summary

 TemperatureHumidityPressure
High48 °F (Mar 14, 2:00 PM)100% (Mar 19, 8:00 AM)30.50 "Hg (Mar 19, 8:00 AM)
Low-4 °F (Mar 20, 8:00 AM)36% (Mar 17, 4:00 PM)29.14 "Hg (Mar 15, 3:00 AM)
Average23 °F69%30.10 "Hg
* Reported Mar 13 11:00 PM — Mar 28 11:00 PM, Creighton, Weather by CustomWeather, © 2015

Note: Actual official high and low records may vary slightly from our data, if they occured in-between our weather recording intervals... More about our weather records

Advertising

Creighton weather history for previous 24 hours

 ConditionsComfort  
Time TempWeatherWind HumidityBarometerVisibility
11:00 PM
Sat, Mar 28
36 °FPartly cloudy.12 mph93%29.63 "Hg15 mi
10:00 PM36 °FOvercast.12 mph93%29.61 "Hg15 mi
9:00 PM36 °FMore clouds than sun.13 mph87%29.59 "Hg12 mi
8:00 PM36 °FLight rain. More clouds than sun.9 mph87%29.54 "Hg12 mi
7:00 PM36 °FOvercast.7 mph81%29.52 "Hg15 mi
6:00 PM39 °FOvercast.3 mph70%29.49 "Hg15 mi
5:00 PM41 °FOvercast.3 mph66%29.47 "Hg15 mi
4:00 PM41 °FOvercast.5 mph66%29.47 "Hg15 mi
3:00 PM41 °FScattered clouds.3 mph70%29.47 "Hg15 mi
2:00 PM39 °FBroken clouds.14 mph70%29.49 "Hg15 mi
1:00 PM37 °FPartly sunny.13 mph75%29.52 "Hg15 mi
12:00 PM34 °FOvercast.13 mph87%29.57 "Hg15 mi
11:00 AM32 °FMostly cloudy.15 mph93%29.60 "Hg15 mi
10:00 AM30 °FLight freezing rain. Low clouds.14 mph93%29.65 "Hg12 mi
9:00 AM30 °FLow clouds.10 mph86%29.70 "Hg15 mi
8:00 AM28 °FLow clouds.13 mph93%29.73 "Hg15 mi
7:00 AM28 °FLow clouds.12 mph93%29.76 "Hg15 mi
6:00 AM28 °FLow clouds.12 mph93%29.78 "Hg15 mi
5:00 AM28 °FLow clouds.13 mph93%29.82 "Hg15 mi
4:00 AM27 °FMostly cloudy.12 mph93%29.87 "Hg15 mi
3:00 AM27 °FLow clouds.12 mph93%29.90 "Hg15 mi
2:00 AM27 °FLow clouds.10 mph93%29.93 "Hg15 mi
1:00 AM27 °FPassing clouds.12 mph93%29.97 "Hg15 mi
12:00 AM27 °FOvercast.9 mph93%29.97 "Hg15 mi
11:00 PM
Fri, Mar 27
28 °FOvercast.9 mph86%30.01 "Hg15 mi
Weather by CustomWeather, © 2015

See weather overviewHow to use our weather pages